SWA6299 KFLL-KDCA

Flight info

Callsign SWA6299
Flight time 1h 58m
Altitude 39000
Route FEALX2 ETECK GRUBR Y299 SEELO GARIC RANAY TANJA WAVES CAPSS4
Aircraft B737/M-SDE2E3FGHIRWXY/LB1

Departure

Time 2026-04-24 10:30
Airport Fort Lauderdale Hollywood International Airport (KFLL)

Arrival

Time 2026-04-24 12:29
Airport Ronald Reagan Washington National Airport (KDCA)
Time Latitude Longitude Altitude Speed Heading
2026-04-24 10:03 26.07333 -80.13787 12 ft 0 kts 244°
2026-04-24 10:19 26.07333 -80.13786 12 ft 1 kts 244°
2026-04-24 10:20 26.07339 -80.13772 12 ft 2 kts 244°
2026-04-24 10:20 26.07346 -80.13757 12 ft 2 kts 244°
2026-04-24 10:20 26.07345 -80.13742 12 ft 2 kts 309°
2026-04-24 10:20 26.07335 -80.13735 12 ft 0 kts 353°
2026-04-24 10:21 26.07328 -80.13735 12 ft 1 kts 359°
2026-04-24 10:21 26.07327 -80.13735 12 ft 0 kts 359°
2026-04-24 10:23 26.07332 -80.13735 12 ft 3 kts 360°
2026-04-24 10:23 26.07387 -80.13735 12 ft 9 kts
2026-04-24 10:23 26.07453 -80.13757 12 ft 10 kts 310°
2026-04-24 10:23 26.07471 -80.13844 12 ft 12 kts 277°
2026-04-24 10:24 26.07483 -80.13941 12 ft 13 kts 274°
2026-04-24 10:24 26.07486 -80.14051 12 ft 15 kts 270°
2026-04-24 10:24 26.07487 -80.14173 12 ft 15 kts 276°
2026-04-24 10:24 26.07541 -80.14258 12 ft 12 kts 307°
2026-04-24 10:25 26.07559 -80.14369 12 ft 16 kts 271°
2026-04-24 10:25 26.07559 -80.14498 12 ft 17 kts 271°
2026-04-24 10:25 26.07561 -80.14632 12 ft 17 kts 270°
2026-04-24 10:25 26.07560 -80.14764 12 ft 17 kts 270°
2026-04-24 10:26 26.07561 -80.14898 12 ft 17 kts 270°
2026-04-24 10:26 26.07562 -80.15032 12 ft 17 kts 271°
2026-04-24 10:26 26.07563 -80.15162 12 ft 16 kts 270°
2026-04-24 10:26 26.07564 -80.15288 12 ft 16 kts 270°
2026-04-24 10:27 26.07564 -80.15408 12 ft 15 kts 270°
2026-04-24 10:27 26.07565 -80.15529 12 ft 15 kts 271°
2026-04-24 10:27 26.07566 -80.15649 12 ft 15 kts 271°
2026-04-24 10:27 26.07566 -80.15769 12 ft 16 kts 270°
2026-04-24 10:28 26.07567 -80.15903 12 ft 18 kts 270°
2026-04-24 10:28 26.07568 -80.16052 12 ft 20 kts 270°
2026-04-24 10:28 26.07569 -80.16200 12 ft 18 kts 270°
2026-04-24 10:28 26.07570 -80.16332 12 ft 15 kts 270°
2026-04-24 10:29 26.07569 -80.16450 12 ft 14 kts 270°
2026-04-24 10:29 26.07588 -80.16547 12 ft 12 kts 322°
2026-04-24 10:29 26.07666 -80.16557 12 ft 11 kts 11°
2026-04-24 10:29 26.07696 -80.16512 12 ft 6 kts 86°
2026-04-24 10:30 26.07694 -80.16438 12 ft 25 kts 91°
2026-04-24 10:30 26.07689 -80.15890 12 ft 111 kts 90°
2026-04-24 10:30 26.07682 -80.14822 303 ft 152 kts 94°
2026-04-24 10:30 26.07591 -80.13647 1054 ft 159 kts 97°
2026-04-24 10:31 26.07620 -80.12428 1801 ft 165 kts 85°
2026-04-24 10:31 26.07707 -80.11077 2324 ft 187 kts 91°
2026-04-24 10:31 26.07734 -80.09541 2858 ft 213 kts 91°
2026-04-24 10:31 26.07757 -80.07803 3512 ft 237 kts 91°
2026-04-24 10:32 26.07778 -80.05888 4267 ft 257 kts 91°
2026-04-24 10:32 26.07802 -80.03882 5234 ft 268 kts 91°
2026-04-24 10:32 26.07842 -80.01813 6254 ft 275 kts 86°
2026-04-24 10:32 26.08392 -79.99766 7292 ft 283 kts 59°
2026-04-24 10:33 26.09553 -79.98034 8344 ft 287 kts 52°
2026-04-24 10:33 26.10743 -79.96265 9375 ft 291 kts 54°
2026-04-24 10:33 26.11936 -79.94431 10391 ft 295 kts 54°
2026-04-24 10:33 26.13172 -79.92547 11023 ft 314 kts 54°
2026-04-24 10:34 26.14491 -79.90531 11635 ft 331 kts 54°
2026-04-24 10:34 26.15847 -79.88455 12509 ft 339 kts 54°
2026-04-24 10:34 26.17241 -79.86322 13399 ft 345 kts 54°
2026-04-24 10:34 26.18656 -79.84155 14262 ft 352 kts 54°
2026-04-24 10:35 26.20095 -79.81950 15129 ft 358 kts 53°
2026-04-24 10:35 26.21568 -79.79691 15955 ft 364 kts 53°
2026-04-24 10:35 26.23051 -79.77415 16772 ft 369 kts 53°
2026-04-24 10:35 26.24570 -79.75085 17550 ft 375 kts 53°
2026-04-24 10:36 26.26108 -79.72723 18314 ft 381 kts 53°
2026-04-24 10:36 26.27655 -79.70345 19070 ft 386 kts 53°
2026-04-24 10:36 26.29260 -79.67963 19800 ft 390 kts 49°
2026-04-24 10:36 26.31109 -79.65710 20526 ft 394 kts 44°
2026-04-24 10:37 26.33044 -79.63545 21231 ft 398 kts 43°
2026-04-24 10:37 26.34967 -79.61342 21899 ft 403 kts 44°
2026-04-24 10:37 26.36922 -79.59077 22543 ft 408 kts 44°
2026-04-24 10:37 26.38896 -79.56798 23200 ft 412 kts 43°
2026-04-24 10:38 26.40880 -79.54514 23815 ft 416 kts 43°
2026-04-24 10:38 26.42910 -79.52176 24405 ft 421 kts 43°
2026-04-24 10:38 26.44948 -79.49827 24966 ft 426 kts 43°
2026-04-24 10:38 26.46992 -79.47469 25532 ft 430 kts 43°
2026-04-24 10:39 26.49085 -79.45052 26079 ft 434 kts 43°
2026-04-24 10:39 26.51181 -79.42632 26576 ft 439 kts 43°
2026-04-24 10:39 26.53328 -79.40211 27074 ft 443 kts 40°
2026-04-24 10:39 26.55673 -79.37968 27579 ft 444 kts 33°
2026-04-24 10:40 26.58218 -79.36054 28090 ft 445 kts 28°
2026-04-24 10:40 26.60869 -79.34261 28555 ft 449 kts 27°
2026-04-24 10:40 26.63544 -79.32427 29015 ft 453 kts 28°
2026-04-24 10:40 26.66209 -79.30575 29440 ft 457 kts 28°
2026-04-24 10:41 26.68916 -79.28700 29879 ft 460 kts 28°
2026-04-24 10:41 26.71653 -79.26820 30287 ft 464 kts 27°
2026-04-24 10:41 26.74404 -79.24935 30691 ft 468 kts 27°
2026-04-24 10:41 26.77164 -79.23045 31055 ft 472 kts 27°
2026-04-24 10:42 26.79979 -79.21115 31433 ft 476 kts 27°
2026-04-24 10:42 26.82780 -79.19196 31781 ft 480 kts 27°
2026-04-24 10:42 26.85634 -79.17242 32125 ft 484 kts 27°
2026-04-24 10:42 26.88514 -79.15269 32464 ft 488 kts 27°
2026-04-24 10:43 26.91390 -79.13301 32800 ft 491 kts 27°
2026-04-24 10:43 26.94289 -79.11315 33112 ft 495 kts 27°
2026-04-24 10:43 26.97245 -79.09290 33415 ft 499 kts 27°
2026-04-24 10:43 27.00189 -79.07272 33730 ft 502 kts 27°
2026-04-24 10:44 27.03175 -79.05225 34011 ft 506 kts 27°
2026-04-24 10:44 27.06157 -79.03178 34387 ft 506 kts 26°
2026-04-24 10:44 27.09148 -79.01122 34920 ft 503 kts 26°
2026-04-24 10:44 27.12124 -78.99073 35391 ft 501 kts 26°
2026-04-24 10:45 27.15076 -78.97042 35861 ft 498 kts 26°
2026-04-24 10:45 27.18012 -78.95023 36303 ft 496 kts 26°
2026-04-24 10:45 27.20949 -78.93002 36719 ft 494 kts 26°
2026-04-24 10:45 27.23819 -78.91028 37110 ft 492 kts 25°
2026-04-24 10:46 27.26723 -78.89027 37489 ft 490 kts 25°
2026-04-24 10:46 27.29610 -78.87038 37852 ft 488 kts 25°
2026-04-24 10:46 27.32490 -78.85053 38184 ft 486 kts 25°
2026-04-24 10:46 27.35377 -78.83063 38496 ft 485 kts 24°
2026-04-24 10:47 27.38318 -78.81286 38790 ft 477 kts 18°
2026-04-24 10:47 27.41386 -78.79967 39019 ft 470 kts 10°
2026-04-24 10:47 27.44528 -78.79136 39022 ft 464 kts
2026-04-24 10:48 27.50838 -78.78251 39023 ft 458 kts
2026-04-24 10:48 27.57117 -78.77289 39025 ft 456 kts
2026-04-24 10:49 27.63366 -78.76354 39025 ft 457 kts
2026-04-24 10:49 27.69653 -78.75426 39024 ft 458 kts
2026-04-24 10:50 27.75969 -78.74492 39024 ft 458 kts
2026-04-24 10:50 27.82272 -78.73563 39024 ft 458 kts
2026-04-24 10:51 27.88561 -78.72636 39024 ft 459 kts
2026-04-24 10:51 27.94864 -78.71706 39024 ft 459 kts
2026-04-24 10:52 28.02233 -78.70619 39014 ft 459 kts
2026-04-24 10:52 28.07493 -78.69839 39013 ft 460 kts
2026-04-24 10:53 28.13802 -78.68908 39012 ft 460 kts
2026-04-24 10:53 28.20126 -78.67973 39011 ft 460 kts
2026-04-24 10:54 28.26436 -78.67036 39011 ft 460 kts
2026-04-24 10:54 28.32768 -78.66098 39010 ft 459 kts
2026-04-24 10:55 28.39083 -78.65159 39010 ft 459 kts
2026-04-24 10:55 28.45354 -78.64227 39009 ft 459 kts
2026-04-24 10:56 28.51661 -78.63288 39002 ft 459 kts
2026-04-24 10:56 28.57984 -78.62345 39003 ft 459 kts
2026-04-24 10:57 28.64291 -78.61403 39005 ft 459 kts
2026-04-24 10:57 28.71680 -78.60298 39018 ft 458 kts
2026-04-24 10:58 28.76889 -78.59518 39018 ft 458 kts
2026-04-24 10:58 28.83198 -78.58573 39018 ft 459 kts
2026-04-24 10:59 28.89510 -78.57626 39019 ft 459 kts
2026-04-24 10:59 28.95836 -78.56677 39019 ft 459 kts
2026-04-24 11:00 29.02118 -78.55731 39019 ft 458 kts
2026-04-24 11:00 29.08434 -78.54781 39017 ft 458 kts
2026-04-24 11:01 29.14738 -78.53831 39016 ft 459 kts
2026-04-24 11:01 29.21020 -78.52884 39016 ft 459 kts
2026-04-24 11:02 29.27320 -78.51932 39021 ft 459 kts
2026-04-24 11:02 29.33604 -78.50982 39022 ft 459 kts
2026-04-24 11:03 29.39941 -78.50023 39022 ft 459 kts
2026-04-24 11:03 29.46253 -78.49139 39022 ft 457 kts
2026-04-24 11:04 29.52538 -78.49326 39022 ft 453 kts 351°
2026-04-24 11:04 29.58791 -78.49963 39022 ft 454 kts 352°
2026-04-24 11:05 29.65054 -78.50562 39023 ft 454 kts 352°
2026-04-24 11:05 29.71326 -78.51211 39023 ft 454 kts 352°
2026-04-24 11:06 29.77569 -78.51868 39039 ft 454 kts 352°
2026-04-24 11:06 29.83866 -78.52541 39038 ft 455 kts 352°
2026-04-24 11:07 29.93268 -78.53552 39039 ft 455 kts 352°
2026-04-24 11:07 29.99540 -78.54231 39039 ft 454 kts 352°
2026-04-24 11:08 30.05807 -78.54906 39032 ft 454 kts 352°
2026-04-24 11:08 30.12062 -78.55551 39033 ft 454 kts 354°
2026-04-24 11:09 30.18361 -78.55296 39034 ft 457 kts
2026-04-24 11:09 30.24632 -78.54396 39032 ft 457 kts
2026-04-24 11:10 30.30950 -78.53561 39032 ft 457 kts
2026-04-24 11:10 30.37222 -78.52684 39051 ft 456 kts
2026-04-24 11:11 30.43501 -78.51791 39050 ft 456 kts
2026-04-24 11:11 30.49738 -78.50786 39050 ft 456 kts
2026-04-24 11:12 30.56003 -78.49766 39050 ft 455 kts
2026-04-24 11:12 30.62267 -78.48752 39056 ft 455 kts
2026-04-24 11:13 30.68485 -78.47742 39056 ft 455 kts
2026-04-24 11:13 30.74757 -78.46720 39056 ft 455 kts
2026-04-24 11:14 30.80981 -78.45708 39056 ft 454 kts
2026-04-24 11:14 30.87194 -78.44695 39055 ft 454 kts
2026-04-24 11:15 30.93431 -78.43677 39050 ft 453 kts
2026-04-24 11:15 30.99640 -78.42661 39050 ft 452 kts
2026-04-24 11:16 31.05858 -78.41645 39050 ft 452 kts
2026-04-24 11:16 31.12042 -78.40632 39050 ft 452 kts
2026-04-24 11:17 31.18254 -78.39614 39055 ft 451 kts
2026-04-24 11:17 31.24429 -78.38600 39043 ft 451 kts
2026-04-24 11:18 31.30628 -78.37581 39043 ft 450 kts
2026-04-24 11:18 31.36773 -78.36568 39043 ft 450 kts
2026-04-24 11:19 31.42957 -78.35548 39043 ft 449 kts
2026-04-24 11:19 31.49102 -78.34533 39043 ft 449 kts
2026-04-24 11:20 31.55276 -78.33513 39043 ft 449 kts
2026-04-24 11:20 31.61448 -78.32491 39043 ft 449 kts
2026-04-24 11:21 31.67607 -78.31471 39043 ft 449 kts
2026-04-24 11:21 31.73765 -78.30448 39049 ft 448 kts
2026-04-24 11:22 31.79914 -78.29424 39051 ft 448 kts
2026-04-24 11:22 31.86047 -78.28404 39051 ft 448 kts
2026-04-24 11:23 31.92170 -78.27384 39051 ft 448 kts
2026-04-24 11:23 31.98325 -78.26357 39051 ft 448 kts
2026-04-24 11:24 32.04485 -78.25343 39051 ft 448 kts
2026-04-24 11:24 32.10621 -78.24466 39046 ft 447 kts
2026-04-24 11:25 32.16776 -78.23576 39046 ft 447 kts
2026-04-24 11:25 32.22919 -78.22680 39047 ft 447 kts
2026-04-24 11:26 32.29080 -78.21780 39054 ft 447 kts
2026-04-24 11:26 32.35248 -78.20878 39054 ft 447 kts
2026-04-24 11:27 32.41364 -78.19981 39054 ft 447 kts
2026-04-24 11:27 32.47515 -78.19077 39049 ft 447 kts
2026-04-24 11:28 32.53678 -78.18170 39047 ft 446 kts
2026-04-24 11:28 32.59806 -78.17268 39047 ft 446 kts
2026-04-24 11:29 32.65940 -78.16363 39047 ft 446 kts
2026-04-24 11:29 32.72058 -78.15460 39047 ft 446 kts
2026-04-24 11:30 32.78172 -78.14556 39048 ft 446 kts
2026-04-24 11:30 32.84287 -78.13648 39047 ft 444 kts
2026-04-24 11:31 32.90390 -78.12744 39039 ft 444 kts
2026-04-24 11:31 32.96537 -78.11832 39038 ft 444 kts
2026-04-24 11:32 33.02626 -78.10924 39038 ft 443 kts
2026-04-24 11:32 33.08703 -78.10020 39038 ft 443 kts
2026-04-24 11:33 33.14794 -78.09112 39037 ft 443 kts
2026-04-24 11:33 33.20885 -78.08200 39037 ft 441 kts
2026-04-24 11:34 33.26946 -78.07295 39035 ft 441 kts
2026-04-24 11:34 33.33006 -78.06387 39035 ft 440 kts
2026-04-24 11:35 33.39066 -78.05478 39039 ft 440 kts
2026-04-24 11:35 33.45116 -78.04570 39038 ft 440 kts
2026-04-24 11:36 33.51165 -78.03659 39037 ft 439 kts
2026-04-24 11:36 33.57164 -78.02756 39037 ft 438 kts
2026-04-24 11:37 33.63192 -78.01848 39036 ft 439 kts
2026-04-24 11:37 33.69253 -78.00933 39036 ft 439 kts
2026-04-24 11:38 33.75258 -78.00023 39036 ft 438 kts
2026-04-24 11:38 33.81292 -77.99110 39036 ft 437 kts
2026-04-24 11:39 33.87323 -77.98196 39036 ft 438 kts
2026-04-24 11:39 33.93320 -77.97479 39036 ft 437 kts
2026-04-24 11:40 33.99384 -77.96855 39035 ft 437 kts
2026-04-24 11:40 34.05386 -77.96200 39033 ft 437 kts
2026-04-24 11:41 34.11462 -77.95539 39030 ft 437 kts
2026-04-24 11:41 34.17492 -77.94879 39028 ft 437 kts
2026-04-24 11:42 34.23521 -77.94218 39027 ft 437 kts
2026-04-24 11:42 34.29510 -77.93559 39027 ft 436 kts
2026-04-24 11:43 34.35547 -77.92894 39027 ft 436 kts
2026-04-24 11:43 34.41557 -77.92231 39025 ft 436 kts
2026-04-24 11:44 34.47563 -77.91567 39023 ft 436 kts
2026-04-24 11:44 34.53576 -77.90900 39020 ft 435 kts
2026-04-24 11:45 34.59613 -77.90231 39019 ft 435 kts
2026-04-24 11:45 34.65591 -77.89567 39017 ft 434 kts
2026-04-24 11:46 34.71581 -77.88902 39017 ft 434 kts
2026-04-24 11:46 34.77580 -77.88233 39014 ft 434 kts
2026-04-24 11:47 34.83571 -77.87566 39012 ft 433 kts
2026-04-24 11:47 34.89519 -77.86901 39010 ft 433 kts
2026-04-24 11:48 34.95498 -77.86232 39009 ft 432 kts
2026-04-24 11:48 35.01456 -77.85565 39007 ft 432 kts
2026-04-24 11:49 35.07418 -77.84897 39005 ft 432 kts
2026-04-24 11:49 35.13396 -77.84225 39003 ft 432 kts
2026-04-24 11:50 35.19357 -77.83556 38997 ft 432 kts
2026-04-24 11:50 35.25312 -77.82884 38994 ft 432 kts
2026-04-24 11:51 35.31278 -77.82212 38994 ft 432 kts
2026-04-24 11:51 35.37246 -77.81538 38990 ft 431 kts
2026-04-24 11:52 35.43182 -77.80867 38989 ft 431 kts
2026-04-24 11:52 35.49120 -77.80012 38987 ft 433 kts
2026-04-24 11:53 35.55051 -77.78915 38986 ft 433 kts
2026-04-24 11:53 35.60978 -77.77881 38983 ft 432 kts
2026-04-24 11:54 35.66930 -77.76835 38977 ft 433 kts
2026-04-24 11:54 35.72877 -77.75792 38973 ft 433 kts
2026-04-24 11:55 35.78825 -77.74749 38972 ft 433 kts
2026-04-24 11:55 35.84725 -77.73711 38970 ft 432 kts
2026-04-24 11:56 35.90653 -77.72671 38969 ft 432 kts
2026-04-24 11:56 35.96611 -77.71623 38967 ft 432 kts
2026-04-24 11:57 36.02529 -77.70579 38967 ft 433 kts
2026-04-24 11:57 36.08464 -77.69531 38967 ft 432 kts
2026-04-24 11:58 36.14394 -77.68485 38965 ft 432 kts
2026-04-24 11:58 36.20324 -77.67436 38964 ft 431 kts
2026-04-24 11:59 36.26219 -77.66391 38963 ft 431 kts
2026-04-24 11:59 36.32147 -77.65338 38963 ft 430 kts
2026-04-24 12:00 36.38035 -77.64293 38963 ft 430 kts
2026-04-24 12:00 36.43923 -77.63242 38963 ft 429 kts
2026-04-24 12:01 36.49801 -77.62195 38962 ft 429 kts
2026-04-24 12:01 36.55670 -77.61235 38962 ft 428 kts
2026-04-24 12:02 36.61572 -77.60323 38963 ft 428 kts
2026-04-24 12:02 36.67432 -77.59392 38963 ft 427 kts
2026-04-24 12:03 36.73319 -77.58464 38962 ft 427 kts
2026-04-24 12:03 36.79162 -77.57538 38961 ft 426 kts
2026-04-24 12:04 36.85036 -77.56604 38958 ft 426 kts
2026-04-24 12:04 36.90908 -77.55672 38482 ft 430 kts
2026-04-24 12:05 36.93837 -77.55204 37833 ft 429 kts
2026-04-24 12:05 36.96785 -77.54730 37169 ft 427 kts
2026-04-24 12:05 36.99703 -77.54264 36502 ft 426 kts
2026-04-24 12:05 37.02647 -77.53793 35818 ft 426 kts
2026-04-24 12:06 37.05559 -77.53325 35082 ft 427 kts
2026-04-24 12:06 37.08483 -77.52856 34320 ft 428 kts
2026-04-24 12:06 37.11456 -77.52381 33493 ft 430 kts
2026-04-24 12:06 37.14397 -77.51912 32680 ft 432 kts
2026-04-24 12:07 37.17352 -77.51437 31849 ft 434 kts
2026-04-24 12:07 37.20318 -77.50960 30991 ft 436 kts
2026-04-24 12:07 37.23347 -77.50472 30088 ft 439 kts
2026-04-24 12:07 37.26351 -77.49989 29163 ft 442 kts
2026-04-24 12:08 37.29395 -77.49502 28195 ft 446 kts
2026-04-24 12:08 37.32435 -77.49011 27447 ft 444 kts
2026-04-24 12:08 37.35486 -77.48515 26753 ft 440 kts
2026-04-24 12:08 37.38490 -77.48029 26052 ft 438 kts
2026-04-24 12:09 37.41499 -77.47546 25344 ft 435 kts
2026-04-24 12:09 37.44495 -77.47063 24634 ft 433 kts
2026-04-24 12:09 37.47440 -77.46587 23932 ft 430 kts
2026-04-24 12:09 37.50361 -77.46114 23227 ft 428 kts
2026-04-24 12:10 37.53323 -77.45634 22512 ft 426 kts
2026-04-24 12:10 37.56213 -77.45166 22065 ft 417 kts
2026-04-24 12:10 37.59037 -77.44659 21924 ft 402 kts
2026-04-24 12:11 37.64226 -77.43066 21936 ft 374 kts 10°
2026-04-24 12:11 37.66730 -77.42294 21935 ft 378 kts
2026-04-24 12:11 37.69306 -77.41510 21934 ft 380 kts
2026-04-24 12:11 37.71858 -77.40724 21748 ft 382 kts
2026-04-24 12:12 37.74419 -77.39931 21328 ft 378 kts 10°
2026-04-24 12:12 37.77820 -77.38879 20599 ft 376 kts 10°
2026-04-24 12:12 37.79504 -77.38359 20223 ft 375 kts 10°
2026-04-24 12:12 37.82016 -77.37583 19657 ft 374 kts 10°
2026-04-24 12:13 37.84529 -77.36806 19087 ft 372 kts 10°
2026-04-24 12:13 37.87001 -77.36041 18525 ft 371 kts 10°
2026-04-24 12:13 37.89507 -77.35264 17954 ft 370 kts 10°
2026-04-24 12:13 37.91983 -77.34502 17388 ft 369 kts 11°
2026-04-24 12:14 37.94474 -77.33737 16817 ft 368 kts 11°
2026-04-24 12:14 37.96956 -77.32975 16245 ft 366 kts 11°
2026-04-24 12:14 37.99393 -77.32224 15683 ft 365 kts 11°
2026-04-24 12:14 38.01870 -77.31461 15110 ft 363 kts 11°
2026-04-24 12:15 38.04300 -77.30711 14546 ft 362 kts 11°
2026-04-24 12:15 38.06715 -77.29966 13983 ft 360 kts 11°
2026-04-24 12:15 38.09122 -77.29218 13420 ft 358 kts 11°
2026-04-24 12:15 38.11548 -77.28454 12852 ft 357 kts 11°
2026-04-24 12:16 38.13924 -77.27706 12290 ft 355 kts 11°
2026-04-24 12:16 38.16303 -77.26959 11729 ft 353 kts 11°
2026-04-24 12:16 38.18677 -77.26210 11169 ft 351 kts 11°
2026-04-24 12:16 38.21049 -77.25459 10640 ft 348 kts 11°
2026-04-24 12:17 38.23333 -77.24732 10330 ft 338 kts 11°
2026-04-24 12:17 38.25557 -77.24023 10194 ft 323 kts 11°
2026-04-24 12:17 38.27714 -77.23339 10007 ft 312 kts 10°
2026-04-24 12:17 38.29776 -77.22685 9638 ft 301 kts 10°
2026-04-24 12:18 38.31749 -77.22054 9268 ft 283 kts 10°
2026-04-24 12:18 38.33546 -77.21320 8941 ft 270 kts 21°
2026-04-24 12:18 38.35041 -77.19939 8906 ft 266 kts 36°
2026-04-24 12:18 38.36433 -77.18336 8987 ft 270 kts 36°
2026-04-24 12:19 38.37838 -77.16767 9011 ft 271 kts 35°
2026-04-24 12:19 38.39241 -77.15191 9121 ft 269 kts 36°
2026-04-24 12:19 38.40654 -77.13602 9133 ft 272 kts 36°
2026-04-24 12:19 38.42065 -77.12010 9134 ft 271 kts 36°
2026-04-24 12:20 38.43493 -77.10399 8977 ft 274 kts 36°
2026-04-24 12:20 38.44878 -77.08833 8521 ft 265 kts 36°
2026-04-24 12:20 38.46246 -77.07285 8068 ft 257 kts 36°
2026-04-24 12:20 38.47549 -77.05810 7622 ft 250 kts 35°
2026-04-24 12:21 38.48837 -77.04356 7241 ft 246 kts 35°
2026-04-24 12:21 38.50120 -77.02907 6869 ft 248 kts 36°
2026-04-24 12:21 38.51484 -77.01553 6524 ft 242 kts 22°
2026-04-24 12:21 38.53011 -77.01000 6363 ft 223 kts 359°
2026-04-24 12:22 38.54541 -77.00940 6026 ft 221 kts 358°
2026-04-24 12:22 38.56055 -77.00912 5727 ft 215 kts 354°
2026-04-24 12:22 38.57522 -77.01019 5398 ft 211 kts 353°
2026-04-24 12:22 38.58961 -77.01148 5128 ft 203 kts 352°
2026-04-24 12:23 38.60346 -77.01283 4805 ft 198 kts 352°
2026-04-24 12:23 38.61715 -77.01419 4527 ft 195 kts 352°
2026-04-24 12:23 38.63053 -77.01554 4253 ft 196 kts 352°
2026-04-24 12:23 38.64424 -77.01691 3972 ft 198 kts 353°
2026-04-24 12:24 38.65777 -77.01826 3696 ft 197 kts 353°
2026-04-24 12:24 38.67137 -77.01962 3415 ft 192 kts 353°
2026-04-24 12:24 38.68448 -77.02094 3150 ft 185 kts 353°
2026-04-24 12:24 38.69697 -77.02219 2910 ft 176 kts 353°
2026-04-24 12:25 38.70896 -77.02340 2676 ft 173 kts 353°
2026-04-24 12:25 38.72081 -77.02458 2410 ft 164 kts 354°
2026-04-24 12:25 38.73158 -77.02567 2206 ft 144 kts 353°
2026-04-24 12:25 38.74090 -77.02660 2045 ft 133 kts 353°
2026-04-24 12:26 38.75008 -77.02753 1838 ft 130 kts 353°
2026-04-24 12:26 38.75911 -77.02844 1663 ft 131 kts 353°
2026-04-24 12:26 38.76817 -77.02936 1482 ft 132 kts 354°
2026-04-24 12:26 38.77744 -77.03029 1301 ft 135 kts 355°
2026-04-24 12:27 38.78679 -77.03122 1119 ft 134 kts 355°
2026-04-24 12:27 38.79608 -77.03216 938 ft 133 kts 355°
2026-04-24 12:27 38.80524 -77.03307 760 ft 133 kts 355°
2026-04-24 12:27 38.81451 -77.03362 592 ft 132 kts 359°
2026-04-24 12:28 38.82358 -77.03425 455 ft 133 kts 352°
2026-04-24 12:28 38.83275 -77.03589 248 ft 132 kts 351°
2026-04-24 12:28 38.84161 -77.03674 48 ft 126 kts 354°
2026-04-24 12:28 38.84929 -77.03751 19 ft 79 kts 355°
2026-04-24 12:29 38.85269 -77.03787 19 ft 25 kts 355°
2026-04-24 12:29 38.85400 -77.03800 19 ft 19 kts 355°
2026-04-24 12:29 38.85505 -77.03862 19 ft 16 kts 289°
2026-04-24 12:29 38.85452 -77.03942 21 ft 14 kts 184°
2026-04-24 12:30 38.85338 -77.03936 21 ft 18 kts 175°
2026-04-24 12:30 38.85193 -77.03920 21 ft 19 kts 168°
2026-04-24 12:30 38.85075 -77.03907 20 ft 15 kts 177°
2026-04-24 12:30 38.84972 -77.03899 20 ft 15 kts 175°
2026-04-24 12:31 38.84872 -77.03918 20 ft 14 kts 211°
2026-04-24 12:31 38.84774 -77.03951 21 ft 14 kts 193°
2026-04-24 12:31 38.84683 -77.04006 19 ft 15 kts 209°
2026-04-24 12:31 38.84614 -77.04085 19 ft 11 kts 246°
2026-04-24 12:32 38.84611 -77.04170 19 ft 4 kts 299°
2026-04-24 12:32 38.84629 -77.04190 19 ft 2 kts 329°
2026-04-24 12:32 38.84642 -77.04200 19 ft 2 kts 331°
2026-04-24 12:32 38.84649 -77.04204 19 ft 0 kts 331°